Time,TemperatureF,DewpointF,PressureIn,WindDirection,WindDirectionDegrees,WindSpeedMPH,WindSpeedGustMPH,Humidity,HourlyPrecipIn,Conditions,Clouds,dailyrainin,SoftwareType,DateUTC
2013-05-19 00:05:00,65.4,59.1,29.95,ESE,113,0.0,0.0,80,0.00,,,0.00,Wunderground v.1.15,2013-05-19 05:05:00,
2013-05-19 00:10:00,65.3,59.0,29.95,ESE,113,0.0,0.0,80,0.00,,,0.00,Wunderground v.1.15,2013-05-19 05:10:00,
2013-05-19 00:20:00,65.0,59.0,29.95,ESE,113,0.0,0.0,81,0.00,,,0.00,Wunderground v.1.15,2013-05-19 05:20:00,
2013-05-19 00:30:00,64.8,59.2,29.96,ESE,113,0.0,0.0,82,0.00,,,0.00,Wunderground v.1.15,2013-05-19 05:30:00,
2013-05-19 00:35:00,64.5,58.5,29.96,ESE,113,0.0,0.0,81,0.00,,,0.00,Wunderground v.1.15,2013-05-19 05:35:00,
2013-05-19 00:45:00,64.1,58.1,29.96,ESE,113,0.0,0.0,81,0.00,,,0.00,Wunderground v.1.15,2013-05-19 05:45:00,
2013-05-19 00:50:00,64.0,58.4,29.96,ESE,113,0.0,0.0,82,0.00,,,0.00,Wunderground v.1.15,2013-05-19 05:50:00,
2013-05-19 01:00:00,63.7,58.4,29.96,ESE,113,0.0,0.0,83,0.00,,,0.00,Wunderground v.1.15,2013-05-19 06:00:00,
2013-05-19 01:05:00,63.6,58.3,29.96,ESE,113,0.0,0.0,83,0.00,,,0.00,Wunderground v.1.15,2013-05-19 06:05:00,
2013-05-19 01:15:00,63.3,58.0,29.97,ESE,113,0.0,0.0,83,0.00,,,0.00,Wunderground v.1.15,2013-05-19 06:15:00,
2013-05-19 01:20:00,63.1,57.9,29.96,ESE,113,0.0,0.0,83,0.00,,,0.00,Wunderground v.1.15,2013-05-19 06:20:00,
2013-05-19 01:30:00,62.9,58.3,29.95,ESE,113,0.0,0.0,85,0.00,,,0.00,Wunderground v.1.15,2013-05-19 06:30:00,
2013-05-19 01:35:00,62.9,58.3,29.95,ESE,113,0.0,0.0,85,0.00,,,0.00,Wunderground v.1.15,2013-05-19 06:35:00,
2013-05-19 01:45:00,62.8,58.5,29.96,ESE,113,0.0,0.0,86,0.00,,,0.00,Wunderground v.1.15,2013-05-19 06:45:00,
2013-05-19 01:50:00,62.8,58.5,29.96,ESE,113,0.0,0.0,86,0.00,,,0.00,Wunderground v.1.15,2013-05-19 06:50:00,
2013-05-19 02:00:00,62.6,58.4,29.96,ESE,113,0.0,0.0,86,0.00,,,0.00,Wunderground v.1.15,2013-05-19 07:00:00,
2013-05-19 02:05:00,62.5,58.3,29.96,ESE,113,0.0,0.0,86,0.00,,,0.00,Wunderground v.1.15,2013-05-19 07:05:00,
2013-05-19 02:15:00,62.5,58.3,29.96,ESE,113,0.0,0.0,86,0.00,,,0.00,Wunderground v.1.15,2013-05-19 07:15:00,
2013-05-19 02:25:00,62.3,58.4,29.97,ESE,113,0.0,0.0,87,0.00,,,0.00,Wunderground v.1.15,2013-05-19 07:25:00,
2013-05-19 02:30:00,62.3,58.1,29.97,ESE,113,0.0,3.0,86,0.00,,,0.00,Wunderground v.1.15,2013-05-19 07:30:00,
2013-05-19 02:40:00,62.0,57.8,29.96,ESE,113,0.0,0.0,86,0.00,,,0.00,Wunderground v.1.15,2013-05-19 07:40:00,
2013-05-19 02:45:00,62.0,58.1,29.96,ESE,113,0.0,0.0,87,0.00,,,0.00,Wunderground v.1.15,2013-05-19 07:45:00,
2013-05-19 02:55:00,61.9,58.3,29.96,ESE,113,0.0,0.0,88,0.00,,,0.00,Wunderground v.1.15,2013-05-19 07:55:00,
2013-05-19 03:00:00,61.9,58.3,29.96,ESE,113,0.0,0.0,88,0.00,,,0.00,Wunderground v.1.15,2013-05-19 08:00:00,
2013-05-19 03:10:00,61.9,58.3,29.96,ESE,113,0.0,0.0,88,0.00,,,0.00,Wunderground v.1.15,2013-05-19 08:10:00,
2013-05-19 03:20:00,61.9,58.3,29.97,ESE,113,0.0,0.0,88,0.00,,,0.00,Wunderground v.1.15,2013-05-19 08:20:00,
2013-05-19 03:25:00,61.9,58.3,29.96,ESE,113,0.0,0.0,88,0.00,,,0.00,Wunderground v.1.15,2013-05-19 08:25:00,
2013-05-19 03:35:00,61.7,58.1,29.96,ESE,113,0.0,0.0,88,0.00,,,0.00,Wunderground v.1.15,2013-05-19 08:35:00,
2013-05-19 03:40:00,61.6,58.0,29.96,ESE,113,0.0,0.0,88,0.00,,,0.00,Wunderground v.1.15,2013-05-19 08:40:00,
2013-05-19 03:50:00,61.4,58.1,29.96,ESE,113,0.0,0.0,89,0.00,,,0.00,Wunderground v.1.15,2013-05-19 08:50:00,
2013-05-19 04:00:00,61.4,57.8,29.95,ESE,113,0.0,0.0,88,0.00,,,0.00,Wunderground v.1.15,2013-05-19 09:00:00,
2013-05-19 04:05:00,61.4,58.1,29.95,ESE,113,0.0,0.0,89,0.00,,,0.00,Wunderground v.1.15,2013-05-19 09:05:00,
2013-05-19 04:10:00,61.5,58.2,29.95,ESE,113,0.0,0.0,89,0.00,,,0.00,Wunderground v.1.15,2013-05-19 09:10:00,
2013-05-19 04:20:00,61.5,58.2,29.95,ESE,113,0.0,0.0,89,0.00,,,0.00,Wunderground v.1.15,2013-05-19 09:20:00,
2013-05-19 04:30:00,61.4,58.1,29.95,ESE,113,0.0,0.0,89,0.00,,,0.00,Wunderground v.1.15,2013-05-19 09:30:00,
2013-05-19 04:35:00,61.4,58.1,29.95,ESE,113,0.0,0.0,89,0.00,,,0.00,Wunderground v.1.15,2013-05-19 09:35:00,
2013-05-19 04:40:00,61.2,57.6,29.95,ESE,113,0.0,0.0,88,0.00,,,0.00,Wunderground v.1.15,2013-05-19 09:40:00,
2013-05-19 04:50:00,61.0,57.4,29.95,ESE,113,0.0,0.0,88,0.00,,,0.00,Wunderground v.1.15,2013-05-19 09:50:00,
2013-05-19 05:00:00,60.8,57.2,29.96,ESE,113,0.0,0.0,88,0.00,,,0.00,Wunderground v.1.15,2013-05-19 10:00:00,
2013-05-19 05:05:00,60.7,57.1,29.96,ESE,113,0.0,0.0,88,0.00,,,0.00,Wunderground v.1.15,2013-05-19 10:05:00,
2013-05-19 05:15:00,60.0,56.1,29.96,ESE,113,0.0,0.0,87,0.00,,,0.00,Wunderground v.1.15,2013-05-19 10:15:00,
2013-05-19 05:20:00,59.8,55.9,29.96,ESE,113,0.0,0.0,87,0.00,,,0.00,Wunderground v.1.15,2013-05-19 10:20:00,
2013-05-19 05:30:00,59.6,56.0,29.96,ESE,113,0.0,0.0,88,0.00,,,0.00,Wunderground v.1.15,2013-05-19 10:30:00,
2013-05-19 05:35:00,59.6,56.4,29.96,ESE,113,0.0,0.0,89,0.00,,,0.00,Wunderground v.1.15,2013-05-19 10:35:00,
2013-05-19 05:45:00,59.7,56.5,29.96,ESE,113,0.0,0.0,89,0.00,,,0.00,Wunderground v.1.15,2013-05-19 10:45:00,
2013-05-19 05:55:00,59.5,56.3,29.97,ESE,113,1.0,3.0,89,0.00,,,0.00,Wunderground v.1.15,2013-05-19 10:55:00,
2013-05-19 06:00:00,59.3,55.7,29.97,ESE,113,1.0,1.0,88,0.00,,,0.00,Wunderground v.1.15,2013-05-19 11:00:00,
2013-05-19 06:10:00,59.0,55.8,29.98,ESE,113,0.0,0.0,89,0.00,,,0.00,Wunderground v.1.15,2013-05-19 11:10:00,
2013-05-19 06:15:00,59.0,55.8,29.98,ESE,113,0.0,0.0,89,0.00,,,0.00,Wunderground v.1.15,2013-05-19 11:15:00,
2013-05-19 06:25:00,59.3,56.4,29.97,ESE,113,0.0,0.0,90,0.00,,,0.00,Wunderground v.1.15,2013-05-19 11:25:00,
2013-05-19 06:30:00,59.5,56.6,29.98,ESE,113,0.0,0.0,90,0.00,,,0.00,Wunderground v.1.15,2013-05-19 11:30:00,
2013-05-19 06:40:00,60.3,57.7,29.98,ESE,113,0.0,0.0,91,0.00,,,0.00,Wunderground v.1.15,2013-05-19 11:40:00,
2013-05-19 06:45:00,60.8,58.5,29.98,ESE,113,0.0,0.0,92,0.00,,,0.00,Wunderground v.1.15,2013-05-19 11:45:00,
2013-05-19 06:55:00,61.7,59.4,29.98,ESE,113,0.0,0.0,92,0.00,,,0.00,Wunderground v.1.15,2013-05-19 11:55:00,
2013-05-19 07:00:00,62.3,59.9,29.97,ESE,113,0.0,0.0,92,0.00,,,0.00,Wunderground v.1.15,2013-05-19 12:00:00,
2013-05-19 07:10:00,63.5,61.1,29.97,East,95,0.0,1.0,92,0.00,,,0.00,Wunderground v.1.15,2013-05-19 12:10:00,
2013-05-19 07:20:00,64.6,62.2,29.96,East,86,1.0,1.0,92,0.00,,,0.00,Wunderground v.1.15,2013-05-19 12:20:00,
2013-05-19 07:25:00,65.2,62.8,29.96,East,86,0.0,1.0,92,0.00,,,0.00,Wunderground v.1.15,2013-05-19 12:25:00,
2013-05-19 07:30:00,65.7,63.3,29.97,East,86,0.0,0.0,92,0.00,,,0.00,Wunderground v.1.15,2013-05-19 12:30:00,
2013-05-19 07:40:00,66.8,63.5,29.97,East,94,0.0,0.0,89,0.00,,,0.00,Wunderground v.1.15,2013-05-19 12:40:00,
2013-05-19 07:50:00,68.0,63.7,29.96,SE,133,1.0,1.0,86,0.00,,,0.00,Wunderground v.1.15,2013-05-19 12:50:00,
2013-05-19 07:55:00,68.6,63.6,29.96,SE,143,2.0,4.0,84,0.00,,,0.00,Wunderground v.1.15,2013-05-19 12:55:00,
2013-05-19 08:05:00,70.0,64.2,29.96,ESE,122,2.0,2.0,82,0.00,,,0.00,Wunderground v.1.15,2013-05-19 13:05:00,
2013-05-19 08:10:00,70.7,64.2,29.97,SE,144,2.0,2.0,80,0.00,,,0.00,Wunderground v.1.15,2013-05-19 13:10:00,
2013-05-19 08:20:00,71.9,64.3,29.97,SE,140,3.0,3.0,77,0.00,,,0.00,Wunderground v.1.15,2013-05-19 13:20:00,
2013-05-19 08:25:00,72.4,65.2,29.96,ESE,121,2.0,3.0,78,0.00,,,0.00,Wunderground v.1.15,2013-05-19 13:25:00,
2013-05-19 08:35:00,73.7,65.3,29.97,SE,146,2.0,7.0,75,0.00,,,0.00,Wunderground v.1.15,2013-05-19 13:35:00,
2013-05-19 08:40:00,74.1,65.3,29.97,SE,142,2.0,2.0,74,0.00,,,0.00,Wunderground v.1.15,2013-05-19 13:40:00,
2013-05-19 08:50:00,75.0,65.0,29.97,SE,125,2.0,2.0,71,0.00,,,0.00,Wunderground v.1.15,2013-05-19 13:50:00,
2013-05-19 09:00:00,76.4,65.9,29.98,SSW,210,0.0,7.0,70,0.00,,,0.00,Wunderground v.1.15,2013-05-19 14:00:00,
2013-05-19 09:05:00,77.2,65.4,29.98,South,184,2.0,7.0,67,0.00,,,0.00,Wunderground v.1.15,2013-05-19 14:05:00,
2013-05-19 09:15:00,78.3,64.2,29.96,ESE,121,4.0,7.0,62,0.00,,,0.00,Wunderground v.1.15,2013-05-19 14:15:00,
2013-05-19 09:20:00,78.7,65.0,29.97,SSE,161,3.0,3.0,63,0.00,,,0.00,Wunderground v.1.15,2013-05-19 14:20:00,
2013-05-19 09:30:00,79.7,64.1,29.96,South,171,2.0,2.0,59,0.00,,,0.00,Wunderground v.1.15,2013-05-19 14:30:00,
2013-05-19 09:35:00,80.1,64.5,29.97,SSE,166,3.0,3.0,59,0.00,,,0.00,Wunderground v.1.15,2013-05-19 14:35:00,
2013-05-19 09:45:00,81.4,65.7,29.96,SSE,153,2.0,5.0,59,0.00,,,0.00,Wunderground v.1.15,2013-05-19 14:45:00,
2013-05-19 09:55:00,82.3,64.0,29.94,SE,124,3.0,3.0,54,0.00,,,0.00,Wunderground v.1.15,2013-05-19 14:55:00,
2013-05-19 10:00:00,82.7,63.8,29.94,East,84,3.0,5.0,53,0.00,,,0.00,Wunderground v.1.15,2013-05-19 15:00:00,
2013-05-19 10:05:00,83.0,63.0,29.95,ESE,110,3.0,5.0,51,0.00,,,0.00,Wunderground v.1.15,2013-05-19 15:05:00,
2013-05-19 10:15:00,83.9,64.4,29.94,SSE,148,3.0,5.0,52,0.00,,,0.00,Wunderground v.1.15,2013-05-19 15:15:00,
2013-05-19 10:20:00,84.5,64.9,29.94,SSE,155,3.0,3.0,52,0.00,,,0.00,Wunderground v.1.15,2013-05-19 15:20:00,
2013-05-19 10:30:00,85.6,63.7,29.95,SE,143,3.0,3.0,48,0.00,,,0.00,Wunderground v.1.15,2013-05-19 15:30:00,
2013-05-19 10:35:00,85.9,63.3,29.95,SE,128,3.0,7.0,47,0.00,,,0.00,Wunderground v.1.15,2013-05-19 15:35:00,
2013-05-19 10:45:00,85.9,63.9,29.94,ESE,112,4.0,4.0,48,0.00,,,0.00,Wunderground v.1.15,2013-05-19 15:45:00,
2013-05-19 10:50:00,85.7,63.8,29.95,SE,129,5.0,5.0,48,0.00,,,0.00,Wunderground v.1.15,2013-05-19 15:50:00,
2013-05-19 11:00:00,85.5,65.3,29.93,ENE,67,5.0,5.0,51,0.00,,,0.00,Wunderground v.1.15,2013-05-19 16:00:00,
2013-05-19 11:05:00,85.2,63.3,29.93,ESE,119,5.0,5.0,48,0.00,,,0.00,Wunderground v.1.15,2013-05-19 16:05:00,
2013-05-19 11:15:00,85.9,66.8,29.93,ESE,120,3.0,8.0,53,0.00,,,0.00,Wunderground v.1.15,2013-05-19 16:15:00,
2013-05-19 11:20:00,86.2,64.8,29.93,ENE,67,4.0,4.0,49,0.00,,,0.00,Wunderground v.1.15,2013-05-19 16:20:00,
2013-05-19 11:30:00,86.8,64.8,29.93,SE,126,4.0,9.0,48,0.00,,,0.00,Wunderground v.1.15,2013-05-19 16:30:00,
2013-05-19 11:40:00,86.5,65.1,29.92,ESE,113,6.0,6.0,49,0.00,,,0.00,Wunderground v.1.15,2013-05-19 16:40:00,
2013-05-19 11:45:00,86.8,64.2,29.92,ESE,103,5.0,8.0,47,0.00,,,0.00,Wunderground v.1.15,2013-05-19 16:45:00,
2013-05-19 11:55:00,86.8,62.9,29.93,ESE,118,6.0,6.0,45,0.00,,,0.00,Wunderground v.1.15,2013-05-19 16:55:00,
2013-05-19 12:00:00,87.2,65.1,29.92,SSE,159,5.0,5.0,48,0.00,,,0.00,Wunderground v.1.15,2013-05-19 17:00:00,
2013-05-19 12:10:00,88.1,66.5,29.92,ESE,119,3.0,3.0,49,0.00,,,0.00,Wunderground v.1.15,2013-05-19 17:10:00,
2013-05-19 12:15:00,88.4,63.7,29.91,SE,130,4.0,4.0,44,0.00,,,0.00,Wunderground v.1.15,2013-05-19 17:15:00,
2013-05-19 12:25:00,89.0,64.3,29.93,South,187,4.0,10.0,44,0.00,,,0.00,Wunderground v.1.15,2013-05-19 17:25:00,
2013-05-19 12:30:00,89.4,65.3,29.93,SSE,161,3.0,3.0,45,0.00,,,0.00,Wunderground v.1.15,2013-05-19 17:30:00,
2013-05-19 12:40:00,89.0,62.9,29.92,SSE,161,3.0,6.0,42,0.00,,,0.00,Wunderground v.1.15,2013-05-19 17:40:00,
2013-05-19 12:45:00,88.8,64.7,29.92,SSW,204,5.0,6.0,45,0.00,,,0.00,Wunderground v.1.15,2013-05-19 17:45:00,
2013-05-19 12:55:00,89.1,63.7,29.92,South,178,5.0,6.0,43,0.00,,,0.00,Wunderground v.1.15,2013-05-19 17:55:00,
2013-05-19 13:00:00,89.2,64.4,29.92,SSW,200,4.0,4.0,44,0.00,,,0.00,Wunderground v.1.15,2013-05-19 18:00:00,
2013-05-19 13:10:00,89.6,64.1,29.91,SW,217,4.0,12.0,43,0.00,,,0.00,Wunderground v.1.15,2013-05-19 18:10:00,
2013-05-19 13:15:00,89.9,67.0,29.92,SSW,205,4.0,12.0,47,0.00,,,0.00,Wunderground v.1.15,2013-05-19 18:15:00,
2013-05-19 13:25:00,91.0,66.1,29.91,SSE,153,4.0,4.0,44,0.00,,,0.00,Wunderground v.1.15,2013-05-19 18:25:00,
2013-05-19 13:30:00,91.5,63.8,29.90,SSE,167,5.0,5.0,40,0.00,,,0.00,Wunderground v.1.15,2013-05-19 18:30:00,
2013-05-19 13:40:00,91.3,64.3,29.89,SE,136,5.0,5.0,41,0.00,,,0.00,Wunderground v.1.15,2013-05-19 18:40:00,
2013-05-19 13:45:00,91.0,64.0,29.88,SSW,205,5.0,6.0,41,0.00,,,0.00,Wunderground v.1.15,2013-05-19 18:45:00,
2013-05-19 13:55:00,91.1,63.4,29.88,South,176,6.0,6.0,40,0.00,,,0.00,Wunderground v.1.15,2013-05-19 18:55:00,
2013-05-19 14:00:00,91.1,62.7,29.88,SSE,154,6.0,6.0,39,0.00,,,0.00,Wunderground v.1.15,2013-05-19 19:00:00,
2013-05-19 14:10:00,91.5,65.2,29.88,South,186,9.0,10.0,42,0.00,,,0.00,Wunderground v.1.15,2013-05-19 19:10:00,
2013-05-19 14:15:00,91.6,65.9,29.88,SSW,209,7.0,10.0,43,0.00,,,0.00,Wunderground v.1.15,2013-05-19 19:15:00,
2013-05-19 14:25:00,91.7,65.4,29.88,South,173,6.0,6.0,42,0.00,,,0.00,Wunderground v.1.15,2013-05-19 19:25:00,
2013-05-19 14:35:00,91.3,64.3,29.88,SSE,158,6.0,12.0,41,0.00,,,0.00,Wunderground v.1.15,2013-05-19 19:35:00,
2013-05-19 14:40:00,91.4,67.1,29.88,SW,216,8.0,16.0,45,0.00,,,0.00,Wunderground v.1.15,2013-05-19 19:40:00,
2013-05-19 14:50:00,91.5,65.8,29.86,ESE,109,8.0,10.0,43,0.00,,,0.00,Wunderground v.1.15,2013-05-19 19:50:00,
2013-05-19 14:55:00,91.1,67.4,29.86,SE,146,6.0,10.0,46,0.00,,,0.00,Wunderground v.1.15,2013-05-19 19:55:00,
2013-05-19 15:05:00,90.3,64.8,29.85,SE,125,4.0,7.0,43,0.00,,,0.00,Wunderground v.1.15,2013-05-19 20:05:00,
2013-05-19 15:10:00,89.9,66.3,29.84,SE,135,5.0,5.0,46,0.00,,,0.00,Wunderground v.1.15,2013-05-19 20:10:00,
2013-05-19 15:20:00,89.2,66.9,29.84,ESE,121,4.0,4.0,48,0.00,,,0.00,Wunderground v.1.15,2013-05-19 20:20:00,
2013-05-19 15:25:00,89.1,66.9,29.84,SSE,149,4.0,4.0,48,0.00,,,0.00,Wunderground v.1.15,2013-05-19 20:25:00,
2013-05-19 15:35:00,89.1,65.0,29.83,SE,138,3.0,11.0,45,0.00,,,0.00,Wunderground v.1.15,2013-05-19 20:35:00,
2013-05-19 15:40:00,88.9,64.8,29.83,SSE,167,5.0,11.0,45,0.00,,,0.00,Wunderground v.1.15,2013-05-19 20:40:00,
2013-05-19 15:50:00,88.6,65.8,29.83,South,186,6.0,6.0,47,0.00,,,0.00,Wunderground v.1.15,2013-05-19 20:50:00,
2013-05-19 15:55:00,88.4,65.6,29.83,South,184,7.0,10.0,47,0.00,,,0.00,Wunderground v.1.15,2013-05-19 20:55:00,
2013-05-19 16:05:00,88.6,64.5,29.81,ESE,123,7.0,13.0,45,0.00,,,0.00,Wunderground v.1.15,2013-05-19 21:05:00,
2013-05-19 16:15:00,88.5,65.7,29.82,SSE,167,7.0,9.0,47,0.00,,,0.00,Wunderground v.1.15,2013-05-19 21:15:00,
2013-05-19 16:20:00,88.5,65.1,29.82,SE,136,7.0,7.0,46,0.00,,,0.00,Wunderground v.1.15,2013-05-19 21:20:00,
2013-05-19 16:30:00,88.3,64.9,29.82,SSW,212,8.0,8.0,46,0.00,,,0.00,Wunderground v.1.15,2013-05-19 21:30:00,
2013-05-19 16:35:00,87.9,66.4,29.82,SE,142,8.0,12.0,49,0.00,,,0.00,Wunderground v.1.15,2013-05-19 21:35:00,
2013-05-19 16:45:00,88.0,66.4,29.82,SE,125,6.0,6.0,49,0.00,,,0.00,Wunderground v.1.15,2013-05-19 21:45:00,
2013-05-19 16:50:00,88.2,65.4,29.82,SSE,151,6.0,10.0,47,0.00,,,0.00,Wunderground v.1.15,2013-05-19 21:50:00,
2013-05-19 17:00:00,88.6,66.4,29.81,SSE,157,8.0,8.0,48,0.00,,,0.00,Wunderground v.1.15,2013-05-19 22:00:00,
2013-05-19 17:05:00,88.4,65.6,29.81,ESE,111,8.0,9.0,47,0.00,,,0.00,Wunderground v.1.15,2013-05-19 22:05:00,
2013-05-19 17:15:00,87.9,65.2,29.80,SSE,150,8.0,8.0,47,0.00,,,0.00,Wunderground v.1.15,2013-05-19 22:15:00,
2013-05-19 17:20:00,87.8,66.3,29.81,SE,139,8.0,11.0,49,0.00,,,0.00,Wunderground v.1.15,2013-05-19 22:20:00,
2013-05-19 17:30:00,87.7,66.2,29.81,South,172,7.0,8.0,49,0.00,,,0.00,Wunderground v.1.15,2013-05-19 22:30:00,
2013-05-19 17:35:00,87.4,66.5,29.82,SSE,150,7.0,8.0,50,0.00,,,0.00,Wunderground v.1.15,2013-05-19 22:35:00,
2013-05-19 17:45:00,86.9,67.2,29.81,SE,140,6.0,11.0,52,0.00,,,0.00,Wunderground v.1.15,2013-05-19 22:45:00,
2013-05-19 17:50:00,86.6,66.3,29.81,SSE,157,7.0,7.0,51,0.00,,,0.00,Wunderground v.1.15,2013-05-19 22:50:00,
2013-05-19 18:00:00,86.1,66.4,29.81,South,173,7.0,7.0,52,0.00,,,0.00,Wunderground v.1.15,2013-05-19 23:00:00,
2013-05-19 18:05:00,85.9,66.8,29.81,SSE,160,8.0,9.0,53,0.00,,,0.00,Wunderground v.1.15,2013-05-19 23:05:00,
2013-05-19 18:15:00,85.9,67.3,29.81,SSE,165,7.0,8.0,54,0.00,,,0.00,Wunderground v.1.15,2013-05-19 23:15:00,
2013-05-19 18:20:00,85.9,67.3,29.80,SSE,159,8.0,8.0,54,0.00,,,0.00,Wunderground v.1.15,2013-05-19 23:20:00,
2013-05-19 18:30:00,85.5,68.0,29.80,SSE,167,8.0,14.0,56,0.00,,,0.00,Wunderground v.1.15,2013-05-19 23:30:00,
2013-05-19 18:35:00,85.4,67.9,29.80,SSW,197,8.0,14.0,56,0.00,,,0.00,Wunderground v.1.15,2013-05-19 23:35:00,
2013-05-19 18:45:00,85.4,67.9,29.80,SSE,150,7.0,9.0,56,0.00,,,0.00,Wunderground v.1.15,2013-05-19 23:45:00,
2013-05-19 18:50:00,85.3,67.3,29.80,South,180,7.0,7.0,55,0.00,,,0.00,Wunderground v.1.15,2013-05-19 23:50:00,
2013-05-19 19:00:00,85.0,67.5,29.80,SSE,158,6.0,8.0,56,0.00,,,0.00,Wunderground v.1.15,2013-05-20 00:00:00,
2013-05-19 19:05:00,84.8,67.4,29.80,South,170,8.0,8.0,56,0.00,,,0.00,Wunderground v.1.15,2013-05-20 00:05:00,
2013-05-19 19:15:00,84.4,67.5,29.81,SSE,151,6.0,8.0,57,0.00,,,0.00,Wunderground v.1.15,2013-05-20 00:15:00,
2013-05-19 19:25:00,83.8,67.9,29.81,ESE,114,8.0,9.0,59,0.00,,,0.00,Wunderground v.1.15,2013-05-20 00:25:00,
2013-05-19 19:30:00,83.6,68.2,29.81,SSE,157,7.0,7.0,60,0.00,,,0.00,Wunderground v.1.15,2013-05-20 00:30:00,
2013-05-19 19:40:00,83.1,68.3,29.82,SSE,155,6.0,6.0,61,0.00,,,0.00,Wunderground v.1.15,2013-05-20 00:40:00,
2013-05-19 19:45:00,82.8,68.4,29.82,SSE,165,7.0,7.0,62,0.00,,,0.00,Wunderground v.1.15,2013-05-20 00:45:00,
2013-05-19 19:55:00,82.4,68.1,29.82,South,179,7.0,8.0,62,0.00,,,0.00,Wunderground v.1.15,2013-05-20 00:55:00,
2013-05-19 20:00:00,82.2,68.3,29.82,SSE,158,7.0,7.0,63,0.00,,,0.00,Wunderground v.1.15,2013-05-20 01:00:00,
2013-05-19 20:10:00,81.7,68.3,29.82,SE,132,6.0,10.0,64,0.00,,,0.00,Wunderground v.1.15,2013-05-20 01:10:00,
2013-05-19 20:15:00,81.6,68.7,29.82,South,175,6.0,10.0,65,0.00,,,0.00,Wunderground v.1.15,2013-05-20 01:15:00,
2013-05-19 20:25:00,81.1,68.7,29.82,SE,139,6.0,7.0,66,0.00,,,0.00,Wunderground v.1.15,2013-05-20 01:25:00,
2013-05-19 20:30:00,80.8,68.8,29.82,SSE,149,4.0,4.0,67,0.00,,,0.00,Wunderground v.1.15,2013-05-20 01:30:00,
2013-05-19 20:40:00,80.3,68.8,29.83,SSE,155,2.0,2.0,68,0.00,,,0.00,Wunderground v.1.15,2013-05-20 01:40:00,
2013-05-19 20:45:00,80.0,68.9,29.83,SSE,153,3.0,5.0,69,0.00,,,0.00,Wunderground v.1.15,2013-05-20 01:45:00,
2013-05-19 20:55:00,79.6,69.0,29.82,SE,140,3.0,5.0,70,0.00,,,0.00,Wunderground v.1.15,2013-05-20 01:55:00,
2013-05-19 21:05:00,79.6,69.0,29.83,SE,138,4.0,5.0,70,0.00,,,0.00,Wunderground v.1.15,2013-05-20 02:05:00,
2013-05-19 21:10:00,79.4,68.8,29.83,SE,135,3.0,5.0,70,0.00,,,0.00,Wunderground v.1.15,2013-05-20 02:10:00,
2013-05-19 21:20:00,79.0,68.8,29.83,SE,146,2.0,7.0,71,0.00,,,0.00,Wunderground v.1.15,2013-05-20 02:20:00,
2013-05-19 21:25:00,78.9,68.7,29.83,ESE,117,3.0,7.0,71,0.00,,,0.00,Wunderground v.1.15,2013-05-20 02:25:00,
2013-05-19 21:35:00,78.7,68.9,29.83,SE,125,3.0,6.0,72,0.00,,,0.00,Wunderground v.1.15,2013-05-20 02:35:00,
2013-05-19 21:40:00,78.6,68.8,29.83,SE,142,4.0,4.0,72,0.00,,,0.00,Wunderground v.1.15,2013-05-20 02:40:00,
2013-05-19 21:50:00,78.5,68.7,29.83,SSE,155,3.0,6.0,72,0.00,,,0.00,Wunderground v.1.15,2013-05-20 02:50:00,
2013-05-19 21:55:00,78.4,68.6,29.83,SSE,164,3.0,6.0,72,0.00,,,0.00,Wunderground v.1.15,2013-05-20 02:55:00,
2013-05-19 22:05:00,78.1,68.7,29.83,SE,127,3.0,3.0,73,0.00,,,0.00,Wunderground v.1.15,2013-05-20 03:05:00,
2013-05-19 22:10:00,77.9,68.5,29.83,SE,132,3.0,3.0,73,0.00,,,0.00,Wunderground v.1.15,2013-05-20 03:10:00,
2013-05-19 22:20:00,77.6,68.7,29.83,SSE,153,4.0,9.0,74,0.00,,,0.00,Wunderground v.1.15,2013-05-20 03:20:00,
2013-05-19 22:25:00,77.5,68.6,29.83,SE,130,5.0,9.0,74,0.00,,,0.00,Wunderground v.1.15,2013-05-20 03:25:00,
2013-05-19 22:35:00,77.5,68.6,29.83,South,171,6.0,7.0,74,0.00,,,0.00,Wunderground v.1.15,2013-05-20 03:35:00,
2013-05-19 22:40:00,77.5,68.9,29.83,South,175,6.0,8.0,75,0.00,,,0.00,Wunderground v.1.15,2013-05-20 03:40:00,
2013-05-19 22:50:00,77.3,68.8,29.83,South,169,7.0,9.0,75,0.00,,,0.00,Wunderground v.1.15,2013-05-20 03:50:00,
2013-05-19 23:00:00,77.1,68.9,29.83,SE,143,6.0,7.0,76,0.00,,,0.00,Wunderground v.1.15,2013-05-20 04:00:00,
2013-05-19 23:05:00,76.9,68.8,29.83,SSE,155,6.0,8.0,76,0.00,,,0.00,Wunderground v.1.15,2013-05-20 04:05:00,
2013-05-19 23:10:00,76.8,69.0,29.83,SSE,166,7.0,9.0,77,0.00,,,0.00,Wunderground v.1.15,2013-05-20 04:10:00,
2013-05-19 23:15:00,76.6,68.8,29.83,South,170,6.0,9.0,77,0.00,,,0.00,Wunderground v.1.15,2013-05-20 04:15:00,
2013-05-19 23:20:00,76.6,68.8,29.83,SSE,153,6.0,6.0,77,0.00,,,0.00,Wunderground v.1.15,2013-05-20 04:20:00,
2013-05-19 23:30:00,76.5,69.1,29.84,SSE,163,5.0,5.0,78,0.00,,,0.00,Wunderground v.1.15,2013-05-20 04:30:00,
2013-05-19 23:40:00,76.3,69.3,29.84,SSE,160,5.0,5.0,79,0.00,,,0.00,Wunderground v.1.15,2013-05-20 04:40:00,
2013-05-19 23:45:00,76.2,69.2,29.84,South,175,5.0,5.0,79,0.00,,,0.00,Wunderground v.1.15,2013-05-20 04:45:00,
2013-05-19 23:50:00,76.1,69.1,29.84,SE,140,5.0,5.0,79,0.00,,,0.00,Wunderground v.1.15,2013-05-20 04:50:00,